"Period start","avg(HW err(1)/warn(2) (#))","avg(Visibility (m))","avg(Weather code (#))","avg(Precip intensity (mm/h))","min(HW err(1)/warn(2) (#))","max(HW err(1)/warn(2) (#))","std(HW err(1)/warn(2) (#))","med(HW err(1)/warn(2) (#))","min(Visibility (m))","max(Visibility (m))","std(Visibility (m))","med(Visibility (m))","min(Weather code (#))","max(Weather code (#))","std(Weather code (#))","med(Weather code (#))","min(Precip intensity (mm/h))","max(Precip intensity (mm/h))","std(Precip intensity (mm/h))","med(Precip intensity (mm/h))"
2013-08-18 00:00:00,2,10992,62,12.54,2,2,0,2,9423,13489,1273,10674,61,62,0,62,5.60,18.05,3.67,12.60
2013-08-18 00:10:00,2,12311,61,10.35,2,2,0,2,8764,18179,2943,11538,61,62,0,61,2.65,28.75,7.32,8.50
2013-08-18 00:20:00,2,11563,62,12.21,2,2,0,2,8716,14701,2134,10940,61,62,0,62,5.60,19.50,4.24,12.40
2013-08-18 00:30:00,2,10840,62,19.18,2,2,0,2,9067,14043,1570,10304,62,62,0,62,11.25,27.00,5.25,18.75
2013-08-18 00:40:00,2,8618,62,21.92,2,2,0,2,6632,11948,1508,8524,62,62,0,62,15.00,30.95,4.98,21.55
2013-08-18 00:50:00,2,7426,62,17.37,2,2,0,2,6622,8271,411,7326,61,62,0,62,8.30,25.00,4.10,17.65
2013-08-18 01:00:00,2,8957,62,13.29,2,2,0,2,5471,12917,2292,8646,61,62,0,62,6.80,30.45,6.78,11.75
2013-08-18 01:10:00,2,14487,62,10.16,2,2,0,2,13145,16229,958,14696,61,62,0,62,5.95,13.20,1.92,10.62
2013-08-18 01:20:00,2,18215,61,5.55,2,2,0,2,15418,21520,1991,18418,61,62,0,61,2.30,13.25,3.04,4.72
2013-08-18 01:30:00,2,19916,61,6.62,2,2,0,2,13853,29204,4423,18637,61,61,0,61,3.85,9.95,1.80,6.42
2013-08-18 01:40:00,2,16654,61,9.31,2,2,0,2,13985,21747,2049,16201,61,62,0,61,5.05,14.70,3.08,8.30
2013-08-18 01:50:00,2,13876,62,12.62,2,2,0,2,11463,17056,1524,13424,61,62,0,62,7.75,18.60,2.97,12.98
2013-08-18 02:00:00,2,13857,62,18.48,2,2,0,2,12141,16921,1684,13007,62,62,0,62,14.70,23.30,2.81,18.27
2013-08-18 02:10:00,2,20326,61,8.02,2,2,0,2,13311,28623,5380,19153,61,62,0,61,2.25,12.40,3.42,8.60
2013-08-18 02:20:00,2,12588,62,13.08,2,2,0,2,10092,17867,2561,11656,61,62,0,62,7.20,22.25,3.94,13.35
2013-08-18 02:30:00,2,9380,62,11.80,2,2,0,2,8623,10491,667,9054,61,62,0,62,9.50,14.85,1.60,11.38
2013-08-18 02:40:00,2,10233,62,16.82,2,2,0,2,9464,11397,596,10213,62,62,0,62,11.10,23.05,4.12,16.07
2013-08-18 02:50:00,2,11089,62,11.37,2,2,0,2,8663,12606,1109,11334,61,62,0,62,7.45,13.80,1.74,12.00
2013-08-18 03:00:00,2,15053,61,5.78,2,2,0,2,9650,21000,3307,15610,61,62,0,61,1.45,14.40,4.47,3.27
2013-08-18 03:10:00,2,15996,61,4.97,2,2,0,2,9409,20731,3404,16139,61,61,0,61,2.55,8.05,1.98,4.10
2013-08-18 03:20:00,2,16995,61,5.71,2,2,0,2,8440,24101,5222,18692,61,62,0,61,2.95,10.50,2.01,5.05
2013-08-18 03:30:00,2,25674,61,9.19,2,2,0,2,14856,47171,10574,24216,61,62,0,61,2.00,22.85,7.19,5.12
2013-08-18 03:40:00,2,17810,61,5.45,2,2,0,2,11236,24307,4303,18198,61,62,0,61,0.70,11.20,3.21,4.95
2013-08-18 03:50:00,2,9650,61,10.46,2,2,0,2,7265,12685,1855,9087,61,62,0,61,7.05,16.65,3.09,9.55
2013-08-18 04:00:00,2,14974,61,5.56,2,2,0,2,9470,21473,3653,15154,61,62,0,61,0.85,14.85,4.87,3.50
2013-08-18 04:10:00,2,14170,59,2.06,2,2,0,2,10734,19521,2687,13906,52,61,4,61,1.15,3.10,0.72,1.98
2013-08-18 04:20:00,2,10848,58,5.60,2,2,0,2,8697,12960,1277,11182,52,62,4,61,2.20,10.05,2.26,5.48
2013-08-18 04:30:00,2,12754,61,3.94,2,2,0,2,10816,15740,1452,12730,61,61,0,61,2.15,7.20,1.70,3.40
2013-08-18 04:40:00,2,11399,61,5.40,2,2,0,2,9756,12570,791,11542,61,61,0,61,2.30,8.40,1.88,5.42
2013-08-18 04:50:00,2,11199,61,3.58,2,2,0,2,10116,12931,947,11077,61,61,0,61,2.40,4.40,0.70,3.65
2013-08-18 05:00:00,2,11396,61,5.60,2,2,0,2,9028,15812,2125,11079,61,61,0,61,3.10,7.00,1.15,5.60
2013-08-18 05:10:00,2,18525,61,4.85,2,2,0,2,14679,22897,2187,18467,61,61,0,61,2.90,6.80,1.06,4.80
2013-08-18 05:20:00,2,18018,61,5.25,2,2,0,2,16110,20713,1608,17566,61,61,0,61,3.35,8.25,1.42,5.40
2013-08-18 05:30:00,2,11408,61,6.75,2,2,0,2,7959,21017,3624,9996,61,62,0,61,3.70,11.85,2.06,6.88
2013-08-18 05:40:00,2,8802,61,7.22,2,2,0,2,6362,12441,2152,8380,61,62,0,61,4.35,13.30,2.50,6.95
2013-08-18 05:50:00,2,12304,61,7.00,2,2,0,2,10385,15648,1547,12020,61,62,0,61,2.50,11.75,2.43,6.58
2013-08-18 06:00:00,2,12485,61,7.21,2,2,0,2,11154,14957,1362,11774,61,62,0,61,4.15,11.55,2.15,7.17
2013-08-18 06:10:00,2,11979,61,5.29,2,2,0,2,10249,14171,1137,11734,61,61,0,61,2.15,9.90,2.62,4.92
2013-08-18 06:20:00,2,10144,62,9.31,2,2,0,2,8581,11115,745,10240,61,62,0,62,3.35,17.70,4.96,8.12
2013-08-18 06:30:00,2,11098,61,7.62,2,2,0,2,9872,13327,985,10974,61,62,0,61,4.30,10.65,1.90,7.80
2013-08-18 06:40:00,2,14242,61,4.63,2,2,0,2,12682,16374,956,14391,61,61,0,61,2.15,7.55,1.85,3.72
2013-08-18 06:50:00,2,10729,61,1.33,2,2,0,2,8425,14879,2106,9826,61,61,0,61,0.80,4.05,0.93,1.02
2013-08-18 07:00:00,2,8663,54,1.15,2,2,0,2,6734,12412,1645,8623,52,61,4,52,0.35,2.55,0.77,0.88
2013-08-18 07:10:00,2,6622,61,3.01,2,2,0,2,5293,9616,1263,6331,61,61,0,61,0.15,7.55,2.25,2.33
2013-08-18 07:20:00,2,5532,61,3.55,2,2,0,2,3904,7035,893,5372,61,61,0,61,1.65,7.15,1.38,3.38
2013-08-18 07:30:00,2,4650,61,1.56,2,2,0,2,3804,6139,587,4636,61,61,0,61,0.80,3.50,0.87,1.08
2013-08-18 07:40:00,2,17477,55,0.40,2,2,0,2,6750,30482,9214,15434,51,61,5,52,0.15,0.55,0.15,0.45
2013-08-18 07:50:00,2,21284,52,1.02,2,2,0,2,14051,30225,4501,20439,51,52,0,52,0.20,1.85,0.57,0.93
2013-08-18 08:00:00,2,17148,59,2.12,2,2,0,2,14527,21108,2119,16676,52,61,4,61,0.40,4.25,1.03,2.17
2013-08-18 08:10:00,2,29198,51,0.36,2,2,0,2,20319,35021,4951,29612,51,52,0,51,0.00,0.70,0.27,0.42
2013-08-18 08:20:00,2,47912,28,0.03,2,2,0,2,38996,50000,3784,50000,0,61,29,26,0.00,0.15,0.05,0.00
2013-08-18 08:30:00,2,49978,0,0.00,2,2,0,2,49781,50000,66,50000,0,0,0,0,0.00,0.00,0.00,0.00
2013-08-18 08:40:00,2,40321,0,0.00,2,2,0,2,9134,50000,15132,48040,0,0,0,0,0.00,0.00,0.00,0.00
2013-08-18 08:50:00,2,25499,0,0.00,2,2,0,2,6030,41093,13078,26342,0,0,0,0,0.00,0.00,0.00,0.00
2013-08-18 09:00:00,2,5802,8,0.00,2,2,0,2,4293,8635,1356,5340,0,10,4,10,0.00,0.00,0.00,0.00
2013-08-18 09:10:00,2,5343,10,0.00,2,2,0,2,4179,6882,866,5264,10,10,0,10,0.00,0.00,0.00,0.00
2013-08-18 09:20:00,2,6471,10,0.00,2,2,0,2,3858,9353,1982,6040,10,10,0,10,0.00,0.00,0.00,0.00
2013-08-18 09:30:00,2,33245,4,0.00,2,2,0,2,7344,50000,17223,41412,0,10,5,0,0.00,0.00,0.00,0.00
2013-08-18 09:40:00,2,49970,0,0.00,2,2,0,2,49703,50000,89,50000,0,0,0,0,0.00,0.00,0.00,0.00
2013-08-18 09:50:00,2,49825,0,0.00,2,2,0,2,48273,50000,517,50000,0,0,0,0,0.00,0.00,0.00,0.00
2013-08-18 10:00:00,2,50000,0,0.00,2,2,0,2,50000,50000,0,50000,0,0,0,0,0.00,0.00,0.00,0.00
2013-08-18 10:10:00,2,50000,0,0.00,2,2,0,2,50000,50000,0,50000,0,0,0,0,0.00,0.00,0.00,0.00
2013-08-18 10:20:00,2,50000,0,0.00,2,2,0,2,50000,50000,0,50000,0,0,0,0,0.00,0.00,0.00,0.00
2013-08-18 10:30:00,2,50000,0,0.00,2,2,0,2,50000,50000,0,50000,0,0,0,0,0.00,0.00,0.00,0.00
2013-08-18 10:40:00,2,47068,0,0.00,2,2,0,2,33739,50000,5052,50000,0,0,0,0,0.00,0.00,0.00,0.00
2013-08-18 10:50:00,2,50000,0,0.00,2,2,0,2,50000,50000,0,50000,0,0,0,0,0.00,0.00,0.00,0.00
2013-08-18 11:00:00,2,50000,0,0.00,2,2,0,2,50000,50000,0,50000,0,0,0,0,0.00,0.00,0.00,0.00
2013-08-18 11:10:00,2,50000,0,0.00,2,2,0,2,50000,50000,0,50000,0,0,0,0,0.00,0.00,0.00,0.00
2013-08-18 11:20:00,2,50000,0,0.00,2,2,0,2,50000,50000,0,50000,0,0,0,0,0.00,0.00,0.00,0.00
2013-08-18 11:30:00,2,50000,0,0.00,2,2,0,2,50000,50000,0,50000,0,0,0,0,0.00,0.00,0.00,0.00
2013-08-18 11:40:00,2,50000,0,0.00,2,2,0,2,50000,50000,0,50000,0,0,0,0,0.00,0.00,0.00,0.00
2013-08-18 11:50:00,2,50000,0,0.00,2,2,0,2,50000,50000,0,50000,0,0,0,0,0.00,0.00,0.00,0.00
2013-08-18 12:00:00,2,50000,0,0.00,2,2,0,2,50000,50000,0,50000,0,0,0,0,0.00,0.00,0.00,0.00
2013-08-18 12:10:00,2,50000,0,0.00,2,2,0,2,50000,50000,0,50000,0,0,0,0,0.00,0.00,0.00,0.00
2013-08-18 12:20:00,2,50000,0,0.00,2,2,0,2,50000,50000,0,50000,0,0,0,0,0.00,0.00,0.00,0.00
2013-08-18 12:30:00,2,50000,0,0.00,2,2,0,2,50000,50000,0,50000,0,0,0,0,0.00,0.00,0.00,0.00
2013-08-18 12:40:00,2,50000,0,0.00,2,2,0,2,50000,50000,0,50000,0,0,0,0,0.00,0.00,0.00,0.00
2013-08-18 12:50:00,2,50000,0,0.00,2,2,0,2,50000,50000,0,50000,0,0,0,0,0.00,0.00,0.00,0.00
2013-08-18 13:00:00,2,50000,0,0.00,2,2,0,2,50000,50000,0,50000,0,0,0,0,0.00,0.00,0.00,0.00
2013-08-18 13:10:00,2,50000,0,0.00,2,2,0,2,50000,50000,0,50000,0,0,0,0,0.00,0.00,0.00,0.00
2013-08-18 13:20:00,2,50000,0,0.00,2,2,0,2,50000,50000,0,50000,0,0,0,0,0.00,0.00,0.00,0.00
2013-08-18 13:30:00,2,50000,0,0.00,2,2,0,2,50000,50000,0,50000,0,0,0,0,0.00,0.00,0.00,0.00
2013-08-18 13:40:00,2,50000,0,0.00,2,2,0,2,50000,50000,0,50000,0,0,0,0,0.00,0.00,0.00,0.00
2013-08-18 13:50:00,2,50000,0,0.00,2,2,0,2,50000,50000,0,50000,0,0,0,0,0.00,0.00,0.00,0.00
2013-08-18 14:00:00,2,50000,0,0.00,2,2,0,2,50000,50000,0,50000,0,0,0,0,0.00,0.00,0.00,0.00
2013-08-18 14:10:00,2,50000,0,0.00,2,2,0,2,50000,50000,0,50000,0,0,0,0,0.00,0.00,0.00,0.00
2013-08-18 14:20:00,2,50000,0,0.00,2,2,0,2,50000,50000,0,50000,0,0,0,0,0.00,0.00,0.00,0.00
2013-08-18 14:30:00,2,50000,0,0.00,2,2,0,2,50000,50000,0,50000,0,0,0,0,0.00,0.00,0.00,0.00
2013-08-18 14:40:00,2,50000,0,0.00,2,2,0,2,50000,50000,0,50000,0,0,0,0,0.00,0.00,0.00,0.00
2013-08-18 14:50:00,2,50000,0,0.00,2,2,0,2,50000,50000,0,50000,0,0,0,0,0.00,0.00,0.00,0.00
2013-08-18 15:00:00,2,50000,0,0.00,2,2,0,2,50000,50000,0,50000,0,0,0,0,0.00,0.00,0.00,0.00
2013-08-18 15:10:00,2,50000,0,0.00,2,2,0,2,50000,50000,0,50000,0,0,0,0,0.00,0.00,0.00,0.00
2013-08-18 15:20:00,2,50000,0,0.00,2,2,0,2,50000,50000,0,50000,0,0,0,0,0.00,0.00,0.00,0.00
2013-08-18 15:30:00,2,50000,0,0.00,2,2,0,2,50000,50000,0,50000,0,0,0,0,0.00,0.00,0.00,0.00
2013-08-18 15:40:00,2,50000,0,0.00,2,2,0,2,50000,50000,0,50000,0,0,0,0,0.00,0.00,0.00,0.00
2013-08-18 15:50:00,2,50000,0,0.00,2,2,0,2,50000,50000,0,50000,0,0,0,0,0.00,0.00,0.00,0.00
2013-08-18 16:00:00,2,50000,0,0.00,2,2,0,2,50000,50000,0,50000,0,0,0,0,0.00,0.00,0.00,0.00
2013-08-18 16:10:00,2,50000,0,0.00,2,2,0,2,50000,50000,0,50000,0,0,0,0,0.00,0.00,0.00,0.00
2013-08-18 16:20:00,2,50000,0,0.00,2,2,0,2,50000,50000,0,50000,0,0,0,0,0.00,0.00,0.00,0.00
2013-08-18 16:30:00,2,50000,0,0.00,2,2,0,2,50000,50000,0,50000,0,0,0,0,0.00,0.00,0.00,0.00
2013-08-18 16:40:00,2,50000,0,0.00,2,2,0,2,50000,50000,0,50000,0,0,0,0,0.00,0.00,0.00,0.00
2013-08-18 16:50:00,2,50000,0,0.00,2,2,0,2,50000,50000,0,50000,0,0,0,0,0.00,0.00,0.00,0.00
2013-08-18 17:00:00,2,50000,0,0.00,2,2,0,2,50000,50000,0,50000,0,0,0,0,0.00,0.00,0.00,0.00
2013-08-18 17:10:00,2,50000,0,0.00,2,2,0,2,50000,50000,0,50000,0,0,0,0,0.00,0.00,0.00,0.00
2013-08-18 17:20:00,2,50000,0,0.00,2,2,0,2,50000,50000,0,50000,0,0,0,0,0.00,0.00,0.00,0.00
2013-08-18 17:30:00,2,50000,0,0.00,2,2,0,2,50000,50000,0,50000,0,0,0,0,0.00,0.00,0.00,0.00
2013-08-18 17:40:00,2,50000,0,0.00,2,2,0,2,50000,50000,0,50000,0,0,0,0,0.00,0.00,0.00,0.00
2013-08-18 17:50:00,2,50000,0,0.00,2,2,0,2,50000,50000,0,50000,0,0,0,0,0.00,0.00,0.00,0.00
2013-08-18 18:00:00,2,50000,0,0.00,2,2,0,2,50000,50000,0,50000,0,0,0,0,0.00,0.00,0.00,0.00
2013-08-18 18:10:00,2,50000,0,0.00,2,2,0,2,50000,50000,0,50000,0,0,0,0,0.00,0.00,0.00,0.00
2013-08-18 18:20:00,2,50000,0,0.00,2,2,0,2,50000,50000,0,50000,0,0,0,0,0.00,0.00,0.00,0.00
2013-08-18 18:30:00,2,50000,0,0.00,2,2,0,2,50000,50000,0,50000,0,0,0,0,0.00,0.00,0.00,0.00
2013-08-18 18:40:00,2,50000,0,0.00,2,2,0,2,50000,50000,0,50000,0,0,0,0,0.00,0.00,0.00,0.00
2013-08-18 18:50:00,2,50000,0,0.00,2,2,0,2,50000,50000,0,50000,0,0,0,0,0.00,0.00,0.00,0.00
2013-08-18 19:00:00,2,50000,0,0.00,2,2,0,2,50000,50000,0,50000,0,0,0,0,0.00,0.00,0.00,0.00
2013-08-18 19:10:00,2,50000,0,0.00,2,2,0,2,50000,50000,0,50000,0,0,0,0,0.00,0.00,0.00,0.00
2013-08-18 19:20:00,2,50000,0,0.00,2,2,0,2,50000,50000,0,50000,0,0,0,0,0.00,0.00,0.00,0.00
2013-08-18 19:30:00,2,50000,0,0.00,2,2,0,2,50000,50000,0,50000,0,0,0,0,0.00,0.00,0.00,0.00
2013-08-18 19:40:00,2,50000,0,0.00,2,2,0,2,50000,50000,0,50000,0,0,0,0,0.00,0.00,0.00,0.00
2013-08-18 19:50:00,2,50000,0,0.00,2,2,0,2,50000,50000,0,50000,0,0,0,0,0.00,0.00,0.00,0.00
2013-08-18 20:00:00,2,50000,0,0.00,2,2,0,2,50000,50000,0,50000,0,0,0,0,0.00,0.00,0.00,0.00
2013-08-18 20:10:00,2,50000,0,0.00,2,2,0,2,50000,50000,0,50000,0,0,0,0,0.00,0.00,0.00,0.00
2013-08-18 20:20:00,2,50000,0,0.00,2,2,0,2,50000,50000,0,50000,0,0,0,0,0.00,0.00,0.00,0.00
2013-08-18 20:30:00,2,50000,0,0.00,2,2,0,2,50000,50000,0,50000,0,0,0,0,0.00,0.00,0.00,0.00
2013-08-18 20:40:00,2,50000,0,0.00,2,2,0,2,50000,50000,0,50000,0,0,0,0,0.00,0.00,0.00,0.00
2013-08-18 20:50:00,2,50000,0,0.00,2,2,0,2,50000,50000,0,50000,0,0,0,0,0.00,0.00,0.00,0.00
2013-08-18 21:00:00,2,50000,0,0.00,2,2,0,2,50000,50000,0,50000,0,0,0,0,0.00,0.00,0.00,0.00
2013-08-18 21:10:00,2,50000,0,0.00,2,2,0,2,50000,50000,0,50000,0,0,0,0,0.00,0.00,0.00,0.00
2013-08-18 21:20:00,2,50000,0,0.00,2,2,0,2,50000,50000,0,50000,0,0,0,0,0.00,0.00,0.00,0.00
2013-08-18 21:30:00,2,50000,0,0.00,2,2,0,2,50000,50000,0,50000,0,0,0,0,0.00,0.00,0.00,0.00
2013-08-18 21:40:00,2,50000,0,0.00,2,2,0,2,50000,50000,0,50000,0,0,0,0,0.00,0.00,0.00,0.00
2013-08-18 21:50:00,2,49210,0,0.00,2,2,0,2,43904,50000,1811,50000,0,0,0,0,0.00,0.00,0.00,0.00
2013-08-18 22:00:00,2,49586,0,0.00,2,2,0,2,46212,50000,1130,50000,0,0,0,0,0.00,0.00,0.00,0.00
2013-08-18 22:10:00,2,49883,0,0.00,2,2,0,2,48994,50000,300,50000,0,0,0,0,0.00,0.00,0.00,0.00
2013-08-18 22:20:00,2,49496,0,0.00,2,2,0,2,46687,50000,1010,50000,0,0,0,0,0.00,0.00,0.00,0.00
2013-08-18 22:30:00,2,49233,0,0.00,2,2,0,2,43438,50000,1960,50000,0,0,0,0,0.00,0.00,0.00,0.00
2013-08-18 22:40:00,2,46715,0,0.00,2,2,0,2,35086,50000,4978,50000,0,0,0,0,0.00,0.00,0.00,0.00
2013-08-18 22:50:00,2,49459,0,0.00,2,2,0,2,44766,50000,1565,50000,0,0,0,0,0.00,0.00,0.00,0.00
2013-08-18 23:00:00,2,47831,0,0.00,2,2,0,2,41043,50000,2984,49436,0,0,0,0,0.00,0.00,0.00,0.00
2013-08-18 23:10:00,2,48074,0,0.00,2,2,0,2,43209,50000,2482,50000,0,0,0,0,0.00,0.00,0.00,0.00
2013-08-18 23:20:00,2,49694,0,0.00,2,2,0,2,46939,50000,918,50000,0,0,0,0,0.00,0.00,0.00,0.00
2013-08-18 23:30:00,2,48211,0,0.00,2,2,0,2,40787,50000,3112,50000,0,0,0,0,0.00,0.00,0.00,0.00
2013-08-18 23:40:00,2,48467,0,0.00,2,2,0,2,42982,50000,2432,50000,0,0,0,0,0.00,0.00,0.00,0.00
2013-08-18 23:50:00,2,49826,0,0.00,2,2,0,2,48259,50000,522,50000,0,0,0,0,0.00,0.00,0.00,0.00
